Retour au catalogue

KINEIS-1D

ActifCommunicationsSSO
NORAD 60082·PAYLOAD·🇫🇷 France

Lancé Jun 20, 2024 depuis Rocket Lab Launch Complex 1

Loading…

Prochains Passages (prochaines 24 heures)

TLE

FraisSource: Space-Track

Époque: Sep 14, 2026, 23:32 UTC

1 60082U 24114D   26257.98057203  .00000431  00000-0  69314-4 0  9999
2 60082  97.9874 277.1421 0000162 150.6441 209.4778 14.76422324120371

Suivez KINEIS-1D en temps réel avec AllMySat

Download on the App Store